Time,TemperatureF,DewpointF,PressureIn,WindDirection,WindDirectionDegrees,WindSpeedMPH,WindSpeedGustMPH,Humidity,HourlyPrecipIn,Conditions,Clouds,dailyrainin,SolarRadiationWatts/m^2,SoftwareType,DateUTC
2013-03-12 00:03:00,47.0,47.0,-100.00,SSE,147,0.0,0.0,100,0.00,,,0.00,0.000000,,2013-03-12 04:03:00,
2013-03-12 00:13:00,47.0,47.0,-100.00,SSE,147,0.0,0.0,100,0.00,,,0.00,0.000000,,2013-03-12 04:13:00,
2013-03-12 00:43:00,47.0,47.0,-100.00,SSE,150,0.0,0.0,100,0.00,,,0.00,0.000000,,2013-03-12 04:43:00,
2013-03-12 00:52:00,47.0,47.0,-100.00,SSE,150,0.0,0.0,100,0.00,,,0.00,0.000000,,2013-03-12 04:52:00,
2013-03-12 01:03:00,47.0,47.0,-100.00,SSE,150,0.0,0.0,100,0.00,,,0.00,0.000000,,2013-03-12 05:03:00,
2013-03-12 01:12:00,47.0,47.0,-100.00,SSE,150,0.0,0.0,100,0.00,,,0.00,0.000000,,2013-03-12 05:12:00,
2013-03-12 01:32:00,46.0,46.0,-100.00,SSE,154,0.0,0.0,100,0.00,,,0.00,0.000000,,2013-03-12 05:32:00,
2013-03-12 01:42:00,46.0,46.0,-100.00,SSE,154,0.0,0.0,100,0.00,,,0.00,0.000000,,2013-03-12 05:42:00,
2013-03-12 01:52:00,46.0,46.0,-100.00,SSE,154,0.0,0.0,100,0.00,,,0.00,0.000000,,2013-03-12 05:52:00,
2013-03-12 02:02:00,46.0,46.0,-100.00,SSE,154,0.0,0.0,100,0.00,,,0.00,0.000000,,2013-03-12 06:02:00,
2013-03-12 02:12:00,46.0,46.0,-100.00,SSE,154,0.0,0.0,100,0.00,,,0.00,0.000000,,2013-03-12 06:12:00,
2013-03-12 02:42:00,46.0,46.0,-100.00,SSE,158,0.0,0.0,100,0.00,,,0.00,0.000000,,2013-03-12 06:42:00,
2013-03-12 02:52:00,46.0,46.0,-100.00,SSE,158,0.0,0.0,100,0.00,,,0.00,0.000000,,2013-03-12 06:52:00,
2013-03-12 03:02:00,46.0,46.0,-100.00,SSE,158,0.0,0.0,100,0.00,,,0.00,0.000000,,2013-03-12 07:02:00,
2013-03-12 03:12:00,46.0,46.0,-100.00,SSE,158,0.0,0.0,100,0.00,,,0.00,0.000000,,2013-03-12 07:12:00,
2013-03-12 03:32:00,47.0,47.0,-100.00,SSE,162,0.0,0.0,100,0.00,,,0.00,0.000000,,2013-03-12 07:32:00,
2013-03-12 03:42:00,47.0,47.0,-100.00,SSE,162,0.0,0.0,100,0.00,,,0.00,0.000000,,2013-03-12 07:42:00,
2013-03-12 03:53:00,47.0,47.0,-100.00,SSE,162,0.0,0.0,100,0.00,,,0.00,0.000000,,2013-03-12 07:53:00,
2013-03-12 04:02:00,47.0,47.0,-100.00,SSE,162,0.0,0.0,100,0.00,,,0.00,0.000000,,2013-03-12 08:02:00,
2013-03-12 04:13:00,47.0,47.0,-100.00,SSE,162,0.0,0.0,100,0.00,,,0.00,0.000000,,2013-03-12 08:13:00,
2013-03-12 04:42:00,47.0,47.0,-100.00,South,178,0.0,0.0,100,0.00,,,0.00,0.000000,,2013-03-12 08:42:00,
2013-03-12 04:52:00,47.0,47.0,-100.00,South,178,0.0,0.0,100,0.00,,,0.00,0.000000,,2013-03-12 08:52:00,
2013-03-12 05:03:00,47.0,47.0,-100.00,South,178,0.0,0.0,100,0.00,,,0.00,0.000000,,2013-03-12 09:03:00,
2013-03-12 05:12:00,47.0,47.0,-100.00,South,178,0.0,0.0,100,0.00,,,0.00,0.000000,,2013-03-12 09:12:00,
2013-03-12 05:43:00,47.0,47.0,-100.00,South,189,0.0,0.0,100,0.00,,,0.00,0.000000,,2013-03-12 09:43:00,
2013-03-12 05:53:00,47.0,47.0,-100.00,South,189,0.0,0.0,100,0.00,,,0.00,0.000000,,2013-03-12 09:53:00,
2013-03-12 06:02:00,47.0,47.0,-100.00,South,189,0.0,0.0,100,0.00,,,0.00,0.000000,,2013-03-12 10:02:00,
2013-03-12 06:12:00,47.0,47.0,-100.00,South,189,0.0,0.0,100,0.00,,,0.00,0.000000,,2013-03-12 10:12:00,
2013-03-12 06:33:00,41.0,41.0,-100.00,NW,321,0.0,0.0,100,0.06,,,0.06,0.000000,,2013-03-12 10:33:00,
2013-03-12 06:42:00,41.0,41.0,-100.00,NW,321,0.0,0.0,100,0.06,,,0.06,0.000000,,2013-03-12 10:42:00,
2013-03-12 06:53:00,41.0,41.0,-100.00,NW,321,0.0,0.0,100,0.06,,,0.06,0.000000,,2013-03-12 10:53:00,
2013-03-12 07:02:00,41.0,41.0,-100.00,NW,321,0.0,0.0,100,0.06,,,0.06,0.000000,,2013-03-12 11:02:00,
2013-03-12 07:12:00,41.0,41.0,-100.00,NW,321,0.0,0.0,100,0.06,,,0.06,0.000000,,2013-03-12 11:12:00,
2013-03-12 07:33:00,38.0,38.0,-100.00,NW,311,0.0,0.0,100,0.08,,,0.14,0.000000,,2013-03-12 11:33:00,
2013-03-12 07:42:00,38.0,38.0,-100.00,NW,311,0.0,0.0,100,0.08,,,0.14,0.000000,,2013-03-12 11:42:00,
2013-03-12 07:52:00,38.0,38.0,-100.00,NW,311,0.0,0.0,100,0.08,,,0.14,0.000000,,2013-03-12 11:52:00,
2013-03-12 08:03:00,38.0,38.0,-100.00,NW,311,0.0,0.0,100,0.08,,,0.14,0.000000,,2013-03-12 12:03:00,
2013-03-12 08:12:00,38.0,38.0,-100.00,NW,311,0.0,0.0,100,0.08,,,0.14,0.000000,,2013-03-12 12:12:00,
2013-03-12 08:42:00,36.0,36.0,-100.00,NW,310,0.0,0.0,100,0.09,,,0.23,0.000000,,2013-03-12 12:42:00,
2013-03-12 08:52:00,36.0,36.0,-100.00,NW,310,0.0,0.0,100,0.09,,,0.23,0.000000,,2013-03-12 12:52:00,
2013-03-12 09:02:00,36.0,36.0,-100.00,NW,310,0.0,0.0,100,0.09,,,0.23,0.000000,,2013-03-12 13:02:00,
2013-03-12 09:12:00,36.0,36.0,-100.00,NW,310,0.0,0.0,100,0.09,,,0.23,0.000000,,2013-03-12 13:12:00,
2013-03-12 09:43:00,36.0,36.0,-100.00,NW,312,0.0,0.0,100,0.03,,,0.26,24.000000,,2013-03-12 13:43:00,
2013-03-12 09:52:00,36.0,36.0,-100.00,NW,312,0.0,0.0,100,0.03,,,0.26,24.000000,,2013-03-12 13:52:00,
2013-03-12 10:02:00,36.0,36.0,-100.00,NW,312,0.0,0.0,100,0.03,,,0.26,24.000000,,2013-03-12 14:02:00,
2013-03-12 10:12:00,36.0,36.0,-100.00,NW,312,0.0,0.0,100,0.03,,,0.26,24.000000,,2013-03-12 14:12:00,
2013-03-12 10:33:00,35.0,35.0,-100.00,NW,312,0.0,0.0,100,0.01,,,0.27,41.000000,,2013-03-12 14:33:00,
2013-03-12 10:43:00,35.0,35.0,-100.00,NW,312,0.0,0.0,100,0.01,,,0.27,41.000000,,2013-03-12 14:43:00,
2013-03-12 10:53:00,35.0,35.0,-100.00,NW,312,0.0,0.0,100,0.01,,,0.27,41.000000,,2013-03-12 14:53:00,
2013-03-12 11:03:00,35.0,35.0,-100.00,NW,312,0.0,0.0,100,0.01,,,0.27,41.000000,,2013-03-12 15:03:00,
2013-03-12 11:13:00,35.0,35.0,-100.00,NW,312,0.0,0.0,100,0.01,,,0.27,41.000000,,2013-03-12 15:13:00,
2013-03-12 11:43:00,35.0,35.0,-100.00,NW,316,0.0,0.0,100,0.00,,,0.27,74.000000,,2013-03-12 15:43:00,
2013-03-12 11:53:00,35.0,35.0,-100.00,NW,316,0.0,0.0,100,0.00,,,0.27,74.000000,,2013-03-12 15:53:00,
2013-03-12 12:03:00,35.0,35.0,-100.00,NW,316,0.0,0.0,100,0.00,,,0.27,74.000000,,2013-03-12 16:03:00,
2013-03-12 12:12:00,35.0,35.0,-100.00,NW,316,0.0,0.0,100,0.00,,,0.27,74.000000,,2013-03-12 16:12:00,
2013-03-12 12:43:00,37.0,37.0,-100.00,NW,314,0.0,0.0,100,0.00,,,0.27,217.000000,,2013-03-12 16:43:00,
2013-03-12 12:53:00,37.0,37.0,-100.00,NW,314,0.0,0.0,100,0.00,,,0.27,217.000000,,2013-03-12 16:53:00,
2013-03-12 13:03:00,37.0,37.0,-100.00,NW,314,0.0,0.0,100,0.00,,,0.27,217.000000,,2013-03-12 17:03:00,
2013-03-12 13:13:00,37.0,37.0,-100.00,NW,314,0.0,0.0,100,0.00,,,0.27,217.000000,,2013-03-12 17:13:00,
2013-03-12 13:44:00,37.0,37.0,-100.00,NW,313,0.0,0.0,100,0.00,,,0.27,180.000000,,2013-03-12 17:44:00,
2013-03-12 13:54:00,37.0,37.0,-100.00,NW,313,0.0,0.0,100,0.00,,,0.27,180.000000,,2013-03-12 17:54:00,
2013-03-12 14:03:00,37.0,37.0,-100.00,NW,313,0.0,0.0,100,0.00,,,0.27,180.000000,,2013-03-12 18:03:00,
2013-03-12 14:13:00,37.0,37.0,-100.00,NW,313,0.0,0.0,100,0.00,,,0.27,180.000000,,2013-03-12 18:13:00,
2013-03-12 14:43:00,37.0,36.0,-100.00,NW,316,0.0,0.0,96,0.00,,,0.27,269.000000,,2013-03-12 18:43:00,
2013-03-12 14:53:00,37.0,36.0,-100.00,NW,316,0.0,0.0,96,0.00,,,0.27,269.000000,,2013-03-12 18:53:00,
2013-03-12 15:04:00,37.0,36.0,-100.00,NW,316,0.0,0.0,96,0.00,,,0.27,269.000000,,2013-03-12 19:04:00,
2013-03-12 15:13:00,37.0,36.0,-100.00,NW,316,0.0,0.0,96,0.00,,,0.27,269.000000,,2013-03-12 19:13:00,
2013-03-12 15:44:00,36.0,33.0,-100.00,NW,318,0.0,0.0,87,0.00,,,0.27,246.000000,,2013-03-12 19:44:00,
2013-03-12 15:53:00,36.0,33.0,-100.00,NW,318,0.0,0.0,87,0.00,,,0.27,246.000000,,2013-03-12 19:53:00,
2013-03-12 16:02:00,36.0,33.0,-100.00,NW,318,0.0,0.0,87,0.00,,,0.27,246.000000,,2013-03-12 20:02:00,
2013-03-12 16:13:00,36.0,33.0,-100.00,NW,318,0.0,0.0,87,0.00,,,0.27,246.000000,,2013-03-12 20:13:00,
2013-03-12 16:42:00,36.0,32.0,-100.00,NW,317,0.0,0.0,85,0.00,,,0.27,251.000000,,2013-03-12 20:42:00,
2013-03-12 16:53:00,36.0,32.0,-100.00,NW,317,0.0,0.0,85,0.00,,,0.27,251.000000,,2013-03-12 20:53:00,
2013-03-12 17:03:00,36.0,32.0,-100.00,NW,317,0.0,0.0,85,0.00,,,0.27,251.000000,,2013-03-12 21:03:00,
2013-03-12 17:13:00,36.0,32.0,-100.00,NW,317,0.0,0.0,85,0.00,,,0.27,251.000000,,2013-03-12 21:13:00,
2013-03-12 17:43:00,35.0,27.0,-100.00,NW,319,0.0,0.0,72,0.00,,,0.27,295.000000,,2013-03-12 21:43:00,
2013-03-12 17:53:00,35.0,27.0,-100.00,NW,319,0.0,0.0,72,0.00,,,0.27,295.000000,,2013-03-12 21:53:00,
2013-03-12 18:03:00,35.0,27.0,-100.00,NW,319,0.0,0.0,72,0.00,,,0.27,295.000000,,2013-03-12 22:03:00,
2013-03-12 18:13:00,35.0,27.0,-100.00,NW,319,0.0,0.0,72,0.00,,,0.27,295.000000,,2013-03-12 22:13:00,
2013-03-12 18:43:00,33.0,28.0,-100.00,NW,324,0.0,0.0,82,0.00,,,0.27,81.000000,,2013-03-12 22:43:00,
2013-03-12 18:54:00,33.0,28.0,-100.00,NW,324,0.0,0.0,82,0.00,,,0.27,81.000000,,2013-03-12 22:54:00,
2013-03-12 19:03:00,33.0,28.0,-100.00,NW,324,0.0,0.0,82,0.00,,,0.27,81.000000,,2013-03-12 23:03:00,
2013-03-12 19:12:00,33.0,28.0,-100.00,NW,324,0.0,0.0,82,0.00,,,0.27,81.000000,,2013-03-12 23:12:00,
2013-03-12 19:34:00,31.0,29.0,-100.00,NW,318,0.0,0.0,92,0.00,,,0.27,26.000000,,2013-03-12 23:34:00,
2013-03-12 19:43:00,31.0,29.0,-100.00,NW,318,0.0,0.0,92,0.00,,,0.27,26.000000,,2013-03-12 23:43:00,
2013-03-12 19:53:00,31.0,29.0,-100.00,NW,318,0.0,0.0,92,0.00,,,0.27,26.000000,,2013-03-12 23:53:00,
2013-03-12 20:03:00,31.0,29.0,-100.00,NW,318,0.0,0.0,92,0.00,,,0.27,26.000000,,2013-03-13 00:03:00,
2013-03-12 20:13:00,31.0,29.0,-100.00,NW,318,0.0,0.0,92,0.00,,,0.27,26.000000,,2013-03-13 00:13:00,
2013-03-12 20:42:00,31.0,28.0,-100.00,NW,321,0.0,0.0,90,0.00,,,0.27,0.000000,,2013-03-13 00:42:00,
2013-03-12 20:53:00,31.0,28.0,-100.00,NW,321,0.0,0.0,90,0.00,,,0.27,0.000000,,2013-03-13 00:53:00,
2013-03-12 21:03:00,31.0,28.0,-100.00,NW,321,0.0,0.0,90,0.00,,,0.27,0.000000,,2013-03-13 01:03:00,
2013-03-12 21:13:00,31.0,28.0,-100.00,NW,321,0.0,0.0,90,0.00,,,0.27,0.000000,,2013-03-13 01:13:00,
2013-03-12 21:33:00,30.0,27.0,-100.00,NW,316,0.0,0.0,90,0.00,,,0.27,0.000000,,2013-03-13 01:33:00,
2013-03-12 21:43:00,30.0,27.0,-100.00,NW,316,0.0,0.0,90,0.00,,,0.27,0.000000,,2013-03-13 01:43:00,
2013-03-12 21:53:00,30.0,27.0,-100.00,NW,316,0.0,0.0,90,0.00,,,0.27,0.000000,,2013-03-13 01:53:00,
2013-03-12 22:03:00,30.0,27.0,-100.00,NW,316,0.0,0.0,90,0.00,,,0.27,0.000000,,2013-03-13 02:03:00,
2013-03-12 22:12:00,30.0,27.0,-100.00,NW,316,0.0,0.0,90,0.00,,,0.27,0.000000,,2013-03-13 02:12:00,
2013-03-12 22:43:00,30.0,26.0,-100.00,NW,321,0.0,0.0,85,0.00,,,0.27,0.000000,,2013-03-13 02:43:00,
2013-03-12 22:53:00,30.0,26.0,-100.00,NW,321,0.0,0.0,85,0.00,,,0.27,0.000000,,2013-03-13 02:53:00,
2013-03-12 23:02:00,30.0,26.0,-100.00,NW,321,0.0,0.0,85,0.00,,,0.27,0.000000,,2013-03-13 03:02:00,
2013-03-12 23:13:00,30.0,26.0,-100.00,NW,321,0.0,0.0,85,0.00,,,0.27,0.000000,,2013-03-13 03:13:00,
2013-03-12 23:33:00,29.0,24.0,-100.00,NW,319,0.0,0.0,81,0.00,,,0.27,0.000000,,2013-03-13 03:33:00,
2013-03-12 23:43:00,29.0,24.0,-100.00,NW,319,0.0,0.0,81,0.00,,,0.27,0.000000,,2013-03-13 03:43:00,
2013-03-12 23:53:00,29.0,24.0,-100.00,NW,319,0.0,0.0,81,0.00,,,0.27,0.000000,,2013-03-13 03:53:00,